Branson, MO

3:43 PM CDT on June 23, 2017 (GMT -0500)
Branson

Weather History for KBBG - April, 2013

Change the Weather History Date:

Thursday, April 4, 2013

  Actual Average (KHRO) Record (KHRO)
Temperature  
Mean Temperature 44 °F -  
Max Temperature 51 °F 62 °F 91 °F (1929)
Min Temperature 37 °F 41 °F 20 °F (1904)
Degree Days  
Heating Degree Days 21    
Moisture  
Dew Point 30 °F    
Average Humidity 60    
Maximum Humidity 93    
Minimum Humidity 41    
Precipitation  
Precipitation 0.00 in - - ()
Sea Level Pressure  
Sea Level Pressure 30.12 in    
Wind  
Wind Speed 5 mph (North)    
Max Wind Speed 9 mph    
Max Gust Speed -    
Visibility 10 miles    
Events Rain    
Averages and records for this station are not official NWS values.
T = Trace of Precipitation, MM = Missing Value Source: NWS Daily Summary

Daily Weather History Graph

Daily Weather History Graph

Search for Another Location

Airport or City:

Trip Planner

Search our weather history database for the weather conditions in past years. The results will help you decide how hot, cold, wet, or windy it might be!

Date:

Astronomy

Apr. 04, 2013 Rise Set
Actual Time 6:54 AM CDT 7:37 PM CDT
Civil Twilight 6:28 AM CDT 8:03 PM CDT
Nautical Twilight 5:57 AM CDT 8:34 PM CDT
Astronomical Twilight 5:25 AM CDT 9:06 PM CDT
Moon 3:12 AM CDT (4/4) 2:05 PM CDT (4/4)
Length of Visible Light 13h 35m
Length of Day
12h 43m
Waning Crescent, 33% of the Moon is Illuminated
Apr 4
Waning Crescent
Apr 10
New
Apr 18
First Quarter
Apr 25
Full
May 2
Last Quarter

Hourly Weather History & Observations

Time (CDT) Temp. Windchill Dew Point Humidity Pressure Visibility Wind Dir Wind Speed Gust Speed Precip Events Conditions
12:15 AM 44.6 °F 40.7 °F 24.8 °F 46% 30.18 in 10.0 mi ESE 6.9 mph - N/A   Overcast
12:35 AM 44.6 °F 40.7 °F 24.8 °F 46% 30.17 in 10.0 mi ESE 6.9 mph - N/A   Overcast
12:55 AM 44.6 °F 40.2 °F 24.8 °F 46% 30.17 in 10.0 mi East 8.1 mph - N/A   Overcast
1:15 AM 44.6 °F 40.2 °F 24.8 °F 46% 30.16 in 10.0 mi ESE 8.1 mph - N/A   Overcast
1:35 AM 44.6 °F 40.7 °F 24.8 °F 46% 30.16 in 10.0 mi ESE 6.9 mph - N/A   Overcast
1:55 AM 42.8 °F 38.6 °F 26.6 °F 53% 30.15 in 10.0 mi East 6.9 mph - N/A   Overcast
2:15 AM 42.8 °F 38.6 °F 24.8 °F 49% 30.15 in 10.0 mi ESE 6.9 mph - N/A   Overcast
2:35 AM 42.8 °F 40.1 °F 26.6 °F 53% 30.14 in 10.0 mi ESE 4.6 mph - N/A   Overcast
2:55 AM 42.8 °F 39.3 °F 24.8 °F 49% 30.13 in 10.0 mi East 5.8 mph - N/A   Overcast
3:15 AM 42.8 °F - 24.8 °F 49% 30.13 in 10.0 mi Calm Calm - N/A   Overcast
3:35 AM 41.0 °F 38.0 °F 26.6 °F 57% 30.13 in 10.0 mi NE 4.6 mph - N/A Rain Light Rain
3:55 AM 41.0 °F 38.0 °F 26.6 °F 57% 30.13 in 10.0 mi NE 4.6 mph - N/A Rain Light Rain
4:15 AM 39.2 °F 37.0 °F 28.4 °F 65% 30.13 in 9.0 mi NNE 3.5 mph - N/A Rain Light Rain
4:35 AM 39.2 °F 37.0 °F 32.0 °F 75% 30.14 in 10.0 mi NE 3.5 mph - N/A Rain Light Rain
4:55 AM 39.2 °F 35.0 °F 32.0 °F 75% 30.13 in 7.0 mi NNE 5.8 mph - N/A Rain Light Rain
5:15 AM 37.4 °F 33.8 °F 32.0 °F 81% 30.13 in 8.0 mi North 4.6 mph - N/A Rain Light Rain
5:35 AM 37.4 °F 32.8 °F 32.0 °F 81% 30.13 in 10.0 mi North 5.8 mph - N/A Rain Light Rain
5:55 AM 37.4 °F 33.8 °F 33.8 °F 87% 30.14 in 8.0 mi North 4.6 mph - N/A Rain Light Rain
6:15 AM 37.4 °F 33.8 °F 33.8 °F 87% 30.14 in 8.0 mi NNW 4.6 mph - N/A Rain Light Rain
6:35 AM 37.4 °F 33.8 °F 35.6 °F 93% 30.15 in 10.0 mi NNW 4.6 mph - N/A Rain Light Rain
6:45 AM 37.4 °F - 35.6 °F 93% 30.15 in 10.0 mi Calm Calm - N/A Rain Light Rain
7:45 AM 37.4 °F - 33.8 °F 87% 30.14 in 10.0 mi Calm Calm - N/A   Overcast
8:45 AM 39.2 °F - 35.6 °F 87% 30.13 in 10.0 mi Calm Calm - N/A   Overcast
9:45 AM 41.0 °F 36.4 °F 32.0 °F 70% 30.12 in 10.0 mi North 6.9 mph - N/A   Overcast
10:47 AM 42.8 °F 40.1 °F 32.0 °F 66% 30.12 in 10.0 mi NW 4.6 mph - N/A   Overcast
11:45 AM 44.6 °F 42.2 °F 26.6 °F 49% 30.12 in 10.0 mi NNW 4.6 mph - N/A   Overcast
12:49 PM 48.2 °F - 28.4 °F 46% 30.11 in 10.0 mi NE 5.8 mph - N/A   Overcast
1:57 PM 51.8 °F - 32.0 °F 47% 30.09 in 10.0 mi NNE 8.1 mph - N/A   Overcast
2:52 PM 50.0 °F - 30.2 °F 47% 30.08 in 10.0 mi NW 9.2 mph - N/A   Overcast
3:45 PM 50.0 °F - 28.4 °F 43% 30.07 in 10.0 mi NW 8.1 mph - N/A   Overcast
4:45 PM 51.8 °F - 28.4 °F 41% 30.06 in 10.0 mi NNW 6.9 mph - N/A   Overcast
5:55 PM 51.8 °F - 30.2 °F 44% 30.07 in 10.0 mi WNW 5.8 mph - N/A   Overcast
6:45 PM 50.0 °F - 30.2 °F 47% 30.07 in 10.0 mi Calm Calm - N/A   Overcast
7:55 PM 50.0 °F - 32.0 °F 50% 30.07 in 10.0 mi Calm Calm - N/A   Overcast
8:55 PM 48.2 °F - 32.0 °F 54% 30.09 in 10.0 mi Calm Calm - N/A   Overcast
9:15 PM 48.2 °F - 32.0 °F 54% 30.09 in 10.0 mi WNW 3.5 mph - N/A   Overcast
9:35 PM 48.2 °F - 32.0 °F 54% 30.10 in 10.0 mi WNW 3.5 mph - N/A   Overcast
9:55 PM 48.2 °F - 32.0 °F 54% 30.11 in 10.0 mi WNW 3.5 mph - N/A   Partly Cloudy
10:15 PM 46.4 °F 44.3 °F 32.0 °F 57% 30.11 in 10.0 mi WNW 4.6 mph - N/A   Scattered Clouds
10:35 PM 46.4 °F 44.3 °F 32.0 °F 57% 30.12 in 10.0 mi WNW 4.6 mph - N/A   Partly Cloudy
10:55 PM 46.4 °F 45.2 °F 30.2 °F 53% 30.12 in 10.0 mi WNW 3.5 mph - N/A   Clear
11:15 PM 46.4 °F 44.3 °F 32.0 °F 57% 30.12 in 10.0 mi WNW 4.6 mph - N/A   Clear
11:35 PM 44.6 °F 42.2 °F 32.0 °F 61% 30.12 in 10.0 mi WNW 4.6 mph - N/A   Clear
11:55 PM 44.6 °F 43.1 °F 32.0 °F 61% 30.12 in 10.0 mi WNW 3.5 mph - N/A   Clear